Location: Caltech
(34.1382°N, 118.1253°W)
Time: 09:47:25
(UTC-07:00)

SEDSat Delta rocket - Visible Passes

Search period start: 30 June 2015 00:00
Search period end: 10 July 2015 00:00
Orbit: 534 x 1005 km, 31.4° (Epoch: 29 June)

Date Brightness Start Highest point End Pass type
(mag) Time Alt. Az. Time Alt. Az. Time Alt. Az.
30 Jun 5.4 04:06:11 17° S 04:09:06 22° SSE 04:14:01 10° ESE visible
01 Jul 5.5 03:28:20 19° SSE 03:29:05 20° SSE 03:33:46 10° ESE visible
01 Jul 4.5 05:08:54 10° SW 05:15:18 46° SSE 05:21:16 10° E visible
02 Jul 5.8 02:50:26 16° SE 02:50:26 16° SE 02:53:21 10° ESE visible
02 Jul 4.6 04:30:35 18° SW 04:35:13 42° SSE 04:41:18 10° E visible
03 Jul 6.3 02:12:31 10° ESE 02:12:31 10° ESE 02:12:42 10° ESE visible
03 Jul 4.7 03:52:40 29° SSW 03:55:08 39° SSE 04:01:15 10° E visible
04 Jul 4.7 03:14:44 35° SSE 03:15:03 35° SSE 03:21:07 10° E visible
04 Jul 4.2 04:54:53 11° WSW 05:01:29 64° S 05:07:55 10° E visible
05 Jul 5.2 02:36:46 28° SE 02:36:46 28° SE 02:40:54 10° E visible
05 Jul 4.2 04:16:55 22° WSW 04:21:21 61° SSE 04:27:54 10° E visible
06 Jul 5.9 01:58:49 17° ESE 01:58:49 17° ESE 02:00:36 10° E visible
06 Jul 4.2 03:38:58 40° SW 03:41:13 57° SSE 03:47:50 10° E visible
07 Jul 4.1 03:01:01 54° SSE 03:01:05 54° SSE 03:07:43 10° E visible
07 Jul 4.1 04:41:09 11° W 04:47:43 72° S 04:54:22 10° E visible
08 Jul 4.8 02:23:06 37° ESE 02:23:06 37° ESE 02:27:32 10° E visible
08 Jul 4.0 04:03:15 24° WSW 04:07:33 71° S 04:14:19 10° E visible
09 Jul 5.7 01:45:13 20° E 01:45:13 20° E 01:47:17 10° E visible
09 Jul 3.9 03:25:23 46° WSW 03:27:24 70° S 03:34:12 10° E visible
09 Jul 4.2 05:07:22 10° W 05:14:05 63° S 05:20:41 10° ESE visible
